Погода Сумы

Погода Сумы : погода сейчас, прогноз погоды и архив. Всё, что Вы хотите узнать о погоде Сумы!

Хотите узнать прогноз погоды Сумы? Тогда Вам сюда: Погода Сумы

Поиск расширенной информации на нашем сайте:

Другие новости

Новости СМИ2

Главная страница сайта

Новости сайта

03.07.2017

Напоминаем, что на нашем специализированном сайте Метеоцентр.Азия вы можете получить высокодетализированные автоматические прогнозы погоды по пунктам России, СНГ и мира в авиационном формате (включающие направление и скорость ветра, видимость, явления погоды, количество и форму облачности, нижнюю и верхнюю границу облачности).

Рекомендуем: Подборка материалов по истории и теории экономики http://www.econbook.ru/

Погода Сумы - сегодня

Время (UTC), дата Ветер
(°,м/с) 
Видим.   Явления Облачность Т
(°С)
Тd
(°С)
f(%) Тe
(°С)
Pmin
(гПа)
dP
(гПа)
Po
(мм)
O2
(г/м3)
Тmin Tmax R s Состояние
почвы
09 15.08.18 210 (ЮЗ) 10 км    3/0 средняя 
[Ac trans]
+30 +15.5 41 +40  1014.4  745  267           
15 15.08.18 190 (Ю) 10 км    6/3 600 м средняя 
[Cu hum|Ac trans]
+30.8 +12.2 32 +35  1013.2  -0.4  745  267           
18 15.08.18 230 (ЮЗ) 10 км    ясно 
+24.4 +11.5 44 +28  1014.2  0.5  745  273           
21 15.08.18 тихо ()   10 км    ясно 
+20.5 +11.5 56 +24  1015  0.5  745  277           
00 16.08.18 тихо ()   10 км    ясно 
+16.5 +13.3 81 +23  1014.9  -0.3  745  280           
03 16.08.18 300 (СЗ) 10 км    3/0 верхняя 
[Ci fib]
+14.5 +12.5 88 +21  1015.6  0.5  746  283           
06 16.08.18 тихо ()   10 км    3/0 верхняя 
[Ci fib]
+22.8 +15.3 63 +32  1016  746  274  +14.2         
09 16.08.18 тихо ()   10 км    3/0 верхняя 
[Ci fib]
+28.8 +15.3 44 +38  1015.4  -0.2  746  269           
12 16.08.18 360 (С) 10 км    4/3 600 м верхняя 
[Cu hum|Ci fib]
+31.6 +14.5 35 +40  1014.8  -0.4  746  266           
15 16.08.18 350 (С) 10 км    4/3 600 м верхняя 
[Cu med, cong|Ci fib]
+29.8 +16.4 44 +41  1014.9  746  267           
18 16.08.18 360 (С) 10 км    6/0 средняя, верхняя 
[Ac trans|Ci fib]
+24.3 +15.9 59 +35  1016.4  1.1  747  273    +32.4       
21 16.08.18 030 (СВ) 10 км    6/0 верхняя 
[Ci fib]
+21.4 +15.2 68 +31  1017.1  0.5  747  276           
00 17.08.18 010 (С) 10 км    6/0 верхняя 
[Ci fib]
+19.3 +15.2 77 +29  1017.2  -0.1  747  278           
03 17.08.18 010 (С) 10 км    8/0 средняя, верхняя 
[Ac trans|Ci fib]
+17.7 +15.7 88 +29  1017.5  0.2  747  279           
06 17.08.18 040 (СВ) 10 км    8/3 600 м кучево-дожд., средняя 
[Cb calv|Ac trans]
+21.3 +16.3 73 +32  1018.1  0.9  748  276  +17.7         
09 17.08.18 060 (СВ) 10 км    6/0 средняя 
[Ac trans]
+25.9 +16.5 56 +37  1018  0.2  748  272           
12 17.08.18 050 (СВ) 10 км    3/3 600 м верхняя 
[Cu hum|Ci fib]
+28.6 +15.4 45 +38  1017.3  -0.5  748  269           
15 17.08.18 080 (В) 10 км    3/3 600 м верхняя 
[Sc|Ci fib]
+28.1 +16 48 +39  1016.8  -0.5  747  270           
18 17.08.18 040 (СВ) 10 км    4/0 верхняя 
[Ci fib]
+23.3 +17.3 69 +36  1018  0.8  748  274    +29       
21 17.08.18 070 (В) 10 км    ясно 
+21.3 +15.4 69 +31  1018.7  0.5  748  276           
00 18.08.18 100 (В) 10 км    ясно 
+17.4 +14.1 81 +25  1019.7  0.7  749  281           
03 18.08.18 040 (СВ) 10 км    ясно 
+16.1 +14.3 89 +25  1020.5  0.7  749  282           
06 18.08.18 090 (В) 10 км    ясно 
+21.5 +14.3 64 +29  1020.4  0.3  749  277  +15.9         
09 18.08.18 110 (В) 10 км    6/6 600 м 
[Cu med, cong]
+24.7 +13.6 50 +31  1020.6  0.4  750  274           
12 18.08.18 080 (В) 10 км    ясно 
+26 +9.2 35 +26  1020.1  -0.4  749  274           
Время (UTC), дата Ветер
(°,м/с) 
Видим.   Явления Облачность Т
(°С)
Тd
(°С)
f(%) Тe
(°С)
Pmin
(гПа)
dP
(гПа)
Po
(мм)
O2
(г/м3)
Тmin Tmax R s Состояние
почвы

Для получения пояснительной информации подведите курсор к названию столбца.

ПОГОДА Сумы - архив

Всё, что Вы хотите узнать о погоде Сумы - удобно и подробно!

Выберите нужную дату (начиная с 1 января 2015* года) и нажмите кнопку "Найти".
Будут отображены архивные сводки погоды по пункту Сумы, начиная с указанной даты.


Отображать данные в формате CSV (для использования в таблицах Excel)


Внимание! Наш архив погоды предназначен исключительно для личного некоммерческого использования в познавательных целях. Если Вам необходимы официальные справки о состоянии погоды (для производственных, юридических, коммерческих и т.п. целей), обращайтесь в органы Росгидромета.

*Примечание: данная дата относится к архиву по метеостанциям СССР (Россия, СНГ, Балтия).
Архив по метеостанциям Зарубежной Европы и Азии (кроме Китая) хранится 10 дней, по другим регионам земного шара (Китай, Африка, Америка, Австралия, Океания) - 1 день.

Сумы - район местоположения метеостанции


Название, широта, долгота, высота метеостанции:
Сумы 50.9°ш. 34.7°д. 181 м над ур. моря [Украина]

Дополнительная информация

В oтличие oт бoльшинства пoгoдных сайтoв мы публикуем пoдрoбную метеoинфoрмацию в детальнoм прoфессиoнальнoм фoрмате.

Характеристики температуры и влажнoсти вoздуха измеряются на высoте 2 м в тени вдали oт зданий и деревьев.
Скoрoсть ветра измеряется на высoте 10 м (на урoвне рoста челoвека скoрoсть ветра ниже в 1.5-2 раза). Если метеoстанция нахoдится в гoрoде или в лесу, тo скoрoсть ветра занижена на 2-4 м/с пo сравнению с oткрытым местoм. Скoрoсть ветра над акватoриями крупных рек и oзёр, а также на вершинах хoлмoв на 2-5 м/с выше, чем в oбычных услoвиях.
Атмoсфернoе давление в разных тoчках местнoсти мoжет значительнo oтличаться oт давления на метеoстанции, в зависимoсти oт услoвий рельефа (при пoдъёме на 10 м давление пoнижается примернo на 1 мм рт.ст.).